Tracking 17636 objects as of 30-April-2016
HD Live streaming from Space Station
objects crossing your sky now

GOES 7

Track GOES 7 now!
GOES 7 is classified as:


NORAD ID: 17561
Int'l Code: 1987-022A
Perigee: 35,884.6 km
Apogee: 35,909.5 km
Inclination: 15.1 °
Period: 1,441.4 minutes
Semi major axis: 42268 km
RCS: 10.3409 m2 (large)
Launch date: February 26, 1987
Source: United States (US)
Launch site: AIR FORCE EASTERN TEST RANGE (AFETR)
Your satellite tracking list
Your tracking list is empty





NASA's NSSDC Master Catalog

Two Line Element Set (TLE):
1 17561U 87022A   16119.78095918 +.00000014 +00000-0 +00000-0 0  9999
2 17561 015.0810 010.2441 0002945 287.8164 215.6513 00.99904444089985
Source of the keplerian elements: AFSPC

N2YO: 307